PAL318 RPLL-VHHH

Flight info

Callsign PAL318
Flight time 1h 36m
Altitude 40000
Route CAB2R CAB A461 NOMAN V532 BETTY
Aircraft A359/H-SDE2E3GHIJ3J4J5LM1ORWXY/LB1D1

Departure

Time 2026-05-06 02:31
Airport Ninoy Aquino International Airport (RPLL)

Arrival

Time 2026-05-06 04:08
Airport Hong Kong International Airport (VHHH)
Time Latitude Longitude Altitude Speed Heading
2026-05-06 02:31 14.54097 121.07754 3231 ft 240 kts 62°
2026-05-06 02:31 14.54919 121.09247 4016 ft 247 kts 61°
2026-05-06 02:32 14.55794 121.10831 4824 ft 254 kts 61°
2026-05-06 02:32 14.56806 121.12337 5580 ft 263 kts 47°
2026-05-06 02:32 14.58372 121.13334 6389 ft 272 kts 18°
2026-05-06 02:32 14.60275 121.13539 7186 ft 279 kts
2026-05-06 02:33 14.62225 121.13514 8033 ft 283 kts
2026-05-06 02:33 14.63539 121.13500 8608 ft 287 kts
2026-05-06 02:33 14.68289 121.13503 10447 ft 302 kts
2026-05-06 02:34 14.70457 121.13356 10814 ft 323 kts 349°
2026-05-06 02:34 14.72672 121.12668 11212 ft 342 kts 341°
2026-05-06 02:34 14.74955 121.11818 11742 ft 352 kts 341°
2026-05-06 02:34 14.77290 121.10956 12403 ft 358 kts 341°
2026-05-06 02:35 14.79628 121.10105 13063 ft 363 kts 341°
2026-05-06 02:35 14.82027 121.09237 13743 ft 367 kts 341°
2026-05-06 02:35 14.84463 121.08359 14310 ft 372 kts 341°
2026-05-06 02:35 14.86921 121.07475 14871 ft 376 kts 341°
2026-05-06 02:36 14.89430 121.06647 15416 ft 381 kts 347°
2026-05-06 02:36 14.92057 121.06285 15988 ft 383 kts 356°
2026-05-06 02:36 14.94738 121.06109 16544 ft 387 kts 357°
2026-05-06 02:36 14.97431 121.05940 17128 ft 391 kts 357°
2026-05-06 02:37 15.00169 121.05757 17713 ft 395 kts 357°
2026-05-06 02:37 15.02926 121.05571 18247 ft 399 kts 357°
2026-05-06 02:37 15.05712 121.05381 18736 ft 403 kts 357°
2026-05-06 02:37 15.08531 121.05188 19229 ft 406 kts 356°
2026-05-06 02:38 15.11361 121.04992 19749 ft 409 kts 356°
2026-05-06 02:38 15.14220 121.04794 20244 ft 413 kts 356°
2026-05-06 02:38 15.17057 121.04598 20751 ft 416 kts 356°
2026-05-06 02:38 15.19957 121.04398 21271 ft 419 kts 356°
2026-05-06 02:39 15.22886 121.04195 21789 ft 423 kts 355°
2026-05-06 02:39 15.25838 121.03990 22301 ft 427 kts 355°
2026-05-06 02:39 15.28818 121.03782 22817 ft 430 kts 355°
2026-05-06 02:39 15.31818 121.03573 23328 ft 433 kts 355°
2026-05-06 02:40 15.34809 121.03364 23771 ft 436 kts 355°
2026-05-06 02:40 15.37846 121.03153 24191 ft 439 kts 355°
2026-05-06 02:40 15.40902 121.02942 24659 ft 441 kts 355°
2026-05-06 02:40 15.43984 121.02727 25138 ft 444 kts 355°
2026-05-06 02:41 15.47047 121.02345 25655 ft 445 kts 347°
2026-05-06 02:41 15.50018 121.01428 26185 ft 446 kts 336°
2026-05-06 02:41 15.52858 121.00127 26700 ft 448 kts 333°
2026-05-06 02:41 15.55660 120.98678 27221 ft 451 kts 332°
2026-05-06 02:42 15.58453 120.97158 27746 ft 453 kts 331°
2026-05-06 02:42 15.61241 120.95618 28245 ft 456 kts 330°
2026-05-06 02:42 15.64063 120.94069 28742 ft 459 kts 331°
2026-05-06 02:42 15.66900 120.92528 29241 ft 462 kts 331°
2026-05-06 02:43 15.69760 120.90990 29738 ft 465 kts 331°
2026-05-06 02:43 15.72651 120.89445 30181 ft 468 kts 331°
2026-05-06 02:43 15.75565 120.87894 30574 ft 471 kts 331°
2026-05-06 02:43 15.78453 120.86357 30960 ft 474 kts 331°
2026-05-06 02:44 15.81401 120.84789 31341 ft 477 kts 331°
2026-05-06 02:44 15.84380 120.83203 31733 ft 480 kts 331°
2026-05-06 02:44 15.87354 120.81618 32110 ft 482 kts 331°
2026-05-06 02:44 15.90356 120.80016 32490 ft 485 kts 331°
2026-05-06 02:45 15.93369 120.78409 32847 ft 487 kts 331°
2026-05-06 02:45 15.96355 120.76816 33195 ft 490 kts 331°
2026-05-06 02:45 15.99409 120.75185 33547 ft 492 kts 331°
2026-05-06 02:45 16.02456 120.73557 33864 ft 494 kts 331°
2026-05-06 02:46 16.05531 120.71914 34165 ft 496 kts 331°
2026-05-06 02:46 16.08607 120.70272 34506 ft 496 kts 331°
2026-05-06 02:46 16.11683 120.68629 34923 ft 495 kts 331°
2026-05-06 02:46 16.14739 120.66996 35312 ft 494 kts 331°
2026-05-06 02:47 16.17782 120.65368 35717 ft 493 kts 331°
2026-05-06 02:47 16.20825 120.63739 36097 ft 492 kts 331°
2026-05-06 02:47 16.23833 120.62127 36470 ft 491 kts 331°
2026-05-06 02:47 16.26865 120.60503 36846 ft 490 kts 331°
2026-05-06 02:48 16.29902 120.58875 37208 ft 489 kts 331°
2026-05-06 02:48 16.32928 120.57254 37562 ft 488 kts 331°
2026-05-06 02:48 16.35950 120.55633 37923 ft 488 kts 331°
2026-05-06 02:48 16.38971 120.54013 38282 ft 486 kts 331°
2026-05-06 02:49 16.41974 120.52402 38617 ft 485 kts 331°
2026-05-06 02:49 16.44980 120.50789 38895 ft 485 kts 332°
2026-05-06 02:49 16.46961 120.49726 39070 ft 484 kts 332°
2026-05-06 02:49 16.50962 120.47577 39433 ft 483 kts 332°
2026-05-06 02:50 16.53916 120.45990 39700 ft 482 kts 332°
2026-05-06 02:50 16.56893 120.44391 39926 ft 482 kts 332°
2026-05-06 02:50 16.58910 120.43307 39949 ft 483 kts 332°
2026-05-06 02:51 16.65842 120.39580 39952 ft 482 kts 332°
2026-05-06 02:51 16.70767 120.36838 39948 ft 481 kts 327°
2026-05-06 02:52 16.75924 120.32434 39939 ft 478 kts 314°
2026-05-06 02:52 16.81300 120.26635 39935 ft 479 kts 312°
2026-05-06 02:53 16.85129 120.22390 39932 ft 479 kts 312°
2026-05-06 02:53 16.89698 120.17339 39929 ft 479 kts 313°
2026-05-06 02:54 16.94264 120.12316 39932 ft 478 kts 313°
2026-05-06 02:54 16.98853 120.07276 39927 ft 478 kts 313°
2026-05-06 02:55 17.03438 120.02236 39929 ft 478 kts 312°
2026-05-06 02:55 17.08016 119.97198 39928 ft 477 kts 312°
2026-05-06 02:56 17.12587 119.92164 39929 ft 477 kts 312°
2026-05-06 02:56 17.17120 119.87168 39931 ft 477 kts 312°
2026-05-06 02:57 17.21686 119.82132 39932 ft 477 kts 312°
2026-05-06 02:57 17.26248 119.77096 39932 ft 477 kts 312°
2026-05-06 02:58 17.30812 119.72054 39934 ft 476 kts 312°
2026-05-06 02:58 17.35369 119.67016 39932 ft 476 kts 312°
2026-05-06 02:59 17.39918 119.61983 39930 ft 476 kts 312°
2026-05-06 02:59 17.44441 119.56975 39932 ft 476 kts 312°
2026-05-06 03:00 17.48989 119.51935 39930 ft 475 kts 312°
2026-05-06 03:00 17.53525 119.46905 39936 ft 475 kts 312°
2026-05-06 03:01 17.58067 119.41864 39933 ft 474 kts 312°
2026-05-06 03:01 17.62597 119.36832 39937 ft 474 kts 312°
2026-05-06 03:02 17.67121 119.31803 39936 ft 474 kts 312°
2026-05-06 03:02 17.71644 119.26772 39937 ft 473 kts 312°
2026-05-06 03:03 17.76126 119.21782 39936 ft 473 kts 312°
2026-05-06 03:03 17.80632 119.16761 39935 ft 472 kts 312°
2026-05-06 03:04 17.85144 119.11730 39939 ft 472 kts 312°
2026-05-06 03:04 17.89649 119.06702 39936 ft 471 kts 312°
2026-05-06 03:05 17.94109 119.01721 39937 ft 471 kts 311°
2026-05-06 03:05 17.98599 118.96703 39938 ft 471 kts 311°
2026-05-06 03:06 18.03077 118.91688 39936 ft 471 kts 311°
2026-05-06 03:06 18.07561 118.86668 39936 ft 471 kts 311°
2026-05-06 03:07 18.12048 118.81642 39934 ft 470 kts 311°
2026-05-06 03:07 18.16524 118.76622 39942 ft 470 kts 311°
2026-05-06 03:08 18.20995 118.71604 39937 ft 470 kts 311°
2026-05-06 03:08 18.25441 118.66609 39940 ft 470 kts 311°
2026-05-06 03:09 18.29912 118.61583 39938 ft 470 kts 311°
2026-05-06 03:09 18.34383 118.56552 39933 ft 470 kts 311°
2026-05-06 03:10 18.38845 118.51528 39938 ft 469 kts 311°
2026-05-06 03:10 18.43309 118.46497 39936 ft 469 kts 311°
2026-05-06 03:11 18.47762 118.41474 39944 ft 469 kts 311°
2026-05-06 03:11 18.52183 118.36483 39945 ft 469 kts 311°
2026-05-06 03:12 18.56631 118.31458 39941 ft 469 kts 311°
2026-05-06 03:12 18.61082 118.26425 39948 ft 469 kts 311°
2026-05-06 03:13 18.65533 118.21388 39941 ft 468 kts 311°
2026-05-06 03:13 18.69954 118.16381 39936 ft 468 kts 311°
2026-05-06 03:14 18.74388 118.11355 39939 ft 468 kts 311°
2026-05-06 03:14 18.78825 118.06322 39942 ft 468 kts 311°
2026-05-06 03:15 18.83256 118.01291 39947 ft 468 kts 311°
2026-05-06 03:15 18.87683 117.96260 39941 ft 468 kts 311°
2026-05-06 03:16 18.92110 117.91226 39943 ft 467 kts 311°
2026-05-06 03:16 18.96516 117.86211 39943 ft 467 kts 311°
2026-05-06 03:17 19.00940 117.81171 39948 ft 467 kts 311°
2026-05-06 03:17 19.05363 117.76138 39954 ft 467 kts 311°
2026-05-06 03:18 19.09772 117.71106 39953 ft 467 kts 311°
2026-05-06 03:18 19.14192 117.66051 39954 ft 467 kts 311°
2026-05-06 03:19 19.18571 117.61043 39959 ft 467 kts 311°
2026-05-06 03:19 19.22989 117.55989 39953 ft 466 kts 311°
2026-05-06 03:20 19.29603 117.48414 39950 ft 466 kts 311°
2026-05-06 03:20 19.34009 117.43363 39940 ft 466 kts 311°
2026-05-06 03:21 19.38388 117.38339 39956 ft 466 kts 311°
2026-05-06 03:21 19.42776 117.33300 39946 ft 466 kts 311°
2026-05-06 03:22 19.47176 117.28242 39951 ft 466 kts 311°
2026-05-06 03:22 19.51579 117.23177 39964 ft 466 kts 311°
2026-05-06 03:23 19.55946 117.18149 39951 ft 466 kts 311°
2026-05-06 03:23 19.60332 117.13094 39956 ft 465 kts 311°
2026-05-06 03:24 19.64717 117.08037 39953 ft 465 kts 311°
2026-05-06 03:24 19.69100 117.02977 39956 ft 465 kts 311°
2026-05-06 03:25 19.73480 116.97917 39957 ft 465 kts 311°
2026-05-06 03:25 19.77823 116.92895 39957 ft 465 kts 311°
2026-05-06 03:26 19.82206 116.87823 39957 ft 465 kts 311°
2026-05-06 03:26 19.86576 116.82759 39957 ft 464 kts 311°
2026-05-06 03:27 19.90942 116.77698 39959 ft 464 kts 311°
2026-05-06 03:27 19.95289 116.72653 39960 ft 464 kts 311°
2026-05-06 03:28 19.99521 116.67474 39962 ft 463 kts 305°
2026-05-06 03:28 20.02830 116.61618 39959 ft 462 kts 298°
2026-05-06 03:29 20.05831 116.55548 39956 ft 463 kts 297°
2026-05-06 03:29 20.08781 116.49470 39956 ft 462 kts 297°
2026-05-06 03:30 20.11736 116.43433 39959 ft 462 kts 297°
2026-05-06 03:30 20.14723 116.37367 39961 ft 462 kts 297°
2026-05-06 03:31 20.17719 116.31286 39962 ft 462 kts 297°
2026-05-06 03:31 20.20705 116.25216 39960 ft 462 kts 297°
2026-05-06 03:32 20.23689 116.19143 39962 ft 462 kts 297°
2026-05-06 03:32 20.26663 116.13081 39964 ft 462 kts 297°
2026-05-06 03:33 20.29619 116.07049 39962 ft 462 kts 297°
2026-05-06 03:33 20.32598 116.00966 39961 ft 462 kts 297°
2026-05-06 03:34 20.35577 115.94876 39962 ft 462 kts 297°
2026-05-06 03:34 20.38544 115.88803 39963 ft 462 kts 297°
2026-05-06 03:35 20.41502 115.82741 39963 ft 462 kts 297°
2026-05-06 03:35 20.44464 115.76666 39963 ft 462 kts 297°
2026-05-06 03:36 20.46928 115.71606 39966 ft 462 kts 297°
2026-05-06 03:36 20.49888 115.65523 39965 ft 462 kts 297°
2026-05-06 03:37 20.53330 115.58440 39967 ft 462 kts 297°
2026-05-06 03:37 20.56230 115.53602 39966 ft 463 kts 308°
2026-05-06 03:38 20.60676 115.48614 39789 ft 464 kts 314°
2026-05-06 03:38 20.62984 115.46192 39553 ft 464 kts 314°
2026-05-06 03:38 20.65305 115.43784 39327 ft 465 kts 314°
2026-05-06 03:39 20.67629 115.41375 39094 ft 466 kts 314°
2026-05-06 03:39 20.69934 115.38981 38661 ft 464 kts 314°
2026-05-06 03:39 20.72246 115.36571 37956 ft 464 kts 314°
2026-05-06 03:39 20.74566 115.34143 37270 ft 465 kts 313°
2026-05-06 03:40 20.76872 115.31725 36586 ft 465 kts 313°
2026-05-06 03:40 20.79177 115.29305 35888 ft 466 kts 313°
2026-05-06 03:40 20.81457 115.26910 35164 ft 467 kts 313°
2026-05-06 03:40 20.83798 115.24449 34345 ft 471 kts 313°
2026-05-06 03:41 20.86145 115.21981 33440 ft 475 kts 313°
2026-05-06 03:41 20.88506 115.19497 32553 ft 477 kts 313°
2026-05-06 03:41 20.90863 115.17022 31810 ft 476 kts 313°
2026-05-06 03:41 20.93235 115.14531 31184 ft 473 kts 313°
2026-05-06 03:42 20.95564 115.12080 30564 ft 470 kts 313°
2026-05-06 03:42 20.97894 115.09623 29910 ft 469 kts 313°
2026-05-06 03:42 21.00215 115.07175 29217 ft 466 kts 314°
2026-05-06 03:42 21.02509 115.04756 28569 ft 462 kts 314°
2026-05-06 03:43 21.04799 115.02341 27960 ft 459 kts 314°
2026-05-06 03:43 21.07062 114.99952 27342 ft 455 kts 314°
2026-05-06 03:43 21.09306 114.97584 26729 ft 452 kts 314°
2026-05-06 03:43 21.11512 114.95253 26125 ft 449 kts 314°
2026-05-06 03:44 21.13762 114.92877 25503 ft 446 kts 314°
2026-05-06 03:44 21.15937 114.90577 24906 ft 443 kts 314°
2026-05-06 03:44 21.18124 114.88264 24297 ft 441 kts 314°
2026-05-06 03:44 21.20303 114.85959 23679 ft 439 kts 314°
2026-05-06 03:45 21.22476 114.83660 22981 ft 436 kts 314°
2026-05-06 03:45 21.24620 114.81390 22332 ft 432 kts 314°
2026-05-06 03:45 21.26743 114.79142 21719 ft 427 kts 314°
2026-05-06 03:45 21.28849 114.76910 21096 ft 423 kts 314°
2026-05-06 03:46 21.30932 114.74701 20481 ft 419 kts 314°
2026-05-06 03:46 21.33001 114.72507 19849 ft 416 kts 314°
2026-05-06 03:46 21.35052 114.70332 19224 ft 414 kts 314°
2026-05-06 03:46 21.37072 114.68188 18600 ft 411 kts 314°
2026-05-06 03:47 21.39103 114.66032 17928 ft 409 kts 314°
2026-05-06 03:47 21.41116 114.63893 17276 ft 405 kts 314°
2026-05-06 03:47 21.43109 114.61774 16636 ft 401 kts 314°
2026-05-06 03:47 21.45083 114.59677 16023 ft 397 kts 313°
2026-05-06 03:48 21.47042 114.57606 15408 ft 393 kts 314°
2026-05-06 03:48 21.49212 114.55831 14782 ft 393 kts 329°
2026-05-06 03:48 21.51749 114.54743 14207 ft 392 kts 340°
2026-05-06 03:48 21.54299 114.53891 14052 ft 375 kts 340°
2026-05-06 03:49 21.56704 114.53078 13939 ft 359 kts 339°
2026-05-06 03:49 21.59045 114.52275 13644 ft 349 kts 339°
2026-05-06 03:49 21.61253 114.51263 13020 ft 344 kts 326°
2026-05-06 03:49 21.63017 114.49630 12584 ft 335 kts 311°
2026-05-06 03:50 21.64572 114.47814 12450 ft 329 kts 310°
2026-05-06 03:50 21.66125 114.46000 12268 ft 330 kts 310°
2026-05-06 03:50 21.67683 114.44191 12034 ft 330 kts 311°
2026-05-06 03:50 21.69242 114.42386 11804 ft 329 kts 311°
2026-05-06 03:51 21.70798 114.40585 11563 ft 327 kts 311°
2026-05-06 03:51 21.72346 114.38793 11323 ft 326 kts 311°
2026-05-06 03:51 21.73875 114.37024 11117 ft 326 kts 311°
2026-05-06 03:51 21.75431 114.35222 10885 ft 325 kts 311°
2026-05-06 03:52 21.76969 114.33442 10686 ft 321 kts 311°
2026-05-06 03:52 21.78439 114.31742 10498 ft 309 kts 311°
2026-05-06 03:52 21.79897 114.30056 10291 ft 299 kts 311°
2026-05-06 03:52 21.81288 114.28445 10077 ft 290 kts 310°
2026-05-06 03:53 21.82626 114.26894 9838 ft 285 kts 310°
2026-05-06 03:53 21.83976 114.25328 9593 ft 285 kts 310°
2026-05-06 03:53 21.85322 114.23766 9402 ft 285 kts 310°
2026-05-06 03:53 21.86673 114.22200 9203 ft 285 kts 310°
2026-05-06 03:54 21.88015 114.20641 8996 ft 284 kts 310°
2026-05-06 03:54 21.89227 114.19124 8801 ft 283 kts 303°
2026-05-06 03:54 21.89691 114.18367 8721 ft 282 kts 299°
2026-05-06 03:55 21.90578 114.16694 8531 ft 280 kts 297°
2026-05-06 03:55 21.91521 114.14843 8342 ft 281 kts 297°
2026-05-06 03:55 21.92458 114.13014 8145 ft 281 kts 297°
2026-05-06 03:56 21.93409 114.11170 7936 ft 281 kts 296°
2026-05-06 03:56 21.94358 114.09329 7757 ft 281 kts 297°
2026-05-06 03:56 21.95293 114.07518 7546 ft 280 kts 297°
2026-05-06 03:56 21.96239 114.05680 7358 ft 280 kts 296°
2026-05-06 03:57 21.97197 114.03823 7156 ft 281 kts 297°
2026-05-06 03:57 21.98133 114.02007 6952 ft 281 kts 297°
2026-05-06 03:57 21.99086 114.00162 6769 ft 281 kts 296°
2026-05-06 03:57 22.00034 113.98323 6556 ft 281 kts 296°
2026-05-06 03:58 22.00983 113.96482 6367 ft 281 kts 296°
2026-05-06 03:58 22.01929 113.94646 6161 ft 280 kts 296°
2026-05-06 03:58 22.02875 113.92811 5955 ft 281 kts 296°
2026-05-06 03:58 22.03819 113.90980 5794 ft 275 kts 296°
2026-05-06 03:59 22.04733 113.89207 5598 ft 266 kts 297°
2026-05-06 03:59 22.05623 113.87480 5390 ft 260 kts 296°
2026-05-06 03:59 22.06497 113.85780 5071 ft 259 kts 296°
2026-05-06 03:59 22.07370 113.84081 4731 ft 258 kts 296°
2026-05-06 04:00 22.08236 113.82392 4363 ft 258 kts 297°
2026-05-06 04:00 22.09102 113.80706 4065 ft 256 kts 297°
2026-05-06 04:00 22.09969 113.79026 3993 ft 257 kts 298°
2026-05-06 04:00 22.11072 113.77511 3984 ft 258 kts 320°
2026-05-06 04:01 22.12571 113.76576 3982 ft 243 kts 336°
2026-05-06 04:01 22.14071 113.75851 3974 ft 229 kts 336°
2026-05-06 04:01 22.15469 113.75174 3927 ft 219 kts 335°
2026-05-06 04:01 22.16812 113.74516 3881 ft 206 kts 335°
2026-05-06 04:02 22.18086 113.73885 3709 ft 198 kts 335°
2026-05-06 04:02 22.19317 113.73277 3538 ft 192 kts 335°
2026-05-06 04:02 22.20486 113.72692 3317 ft 190 kts 336°
2026-05-06 04:02 22.21706 113.72083 3119 ft 187 kts 336°
2026-05-06 04:03 22.22937 113.71659 2966 ft 184 kts 357°
2026-05-06 04:03 22.24137 113.71948 2864 ft 176 kts 35°
2026-05-06 04:03 22.25136 113.72695 2849 ft 177 kts 34°
2026-05-06 04:03 22.26190 113.73381 2849 ft 176 kts 34°
2026-05-06 04:04 22.27225 113.74082 2755 ft 175 kts 38°
2026-05-06 04:04 22.27964 113.75084 2545 ft 169 kts 69°
2026-05-06 04:04 22.28322 113.76264 2308 ft 166 kts 77°
2026-05-06 04:04 22.28680 113.77449 2087 ft 166 kts 73°
2026-05-06 04:05 22.29071 113.78617 1865 ft 163 kts 73°
2026-05-06 04:05 22.29434 113.79748 1651 ft 154 kts 74°
2026-05-06 04:05 22.29776 113.80817 1442 ft 147 kts 73°
2026-05-06 04:05 22.30097 113.81815 1249 ft 134 kts 73°
2026-05-06 04:06 22.30393 113.82737 1043 ft 127 kts 73°
2026-05-06 04:06 22.30696 113.83632 900 ft 127 kts 72°
2026-05-06 04:06 22.31005 113.84539 763 ft 131 kts 73°
2026-05-06 04:06 22.31305 113.85472 594 ft 131 kts 72°
2026-05-06 04:07 22.31583 113.86393 393 ft 128 kts 77°
2026-05-06 04:07 22.31868 113.87302 229 ft 128 kts 71°
2026-05-06 04:07 22.32160 113.88214 85 ft 128 kts 73°
2026-05-06 04:07 22.32431 113.89076 38 ft 107 kts 71°
2026-05-06 04:08 22.32635 113.89708 38 ft 71 kts 70°
2026-05-06 04:08 22.32764 113.90108 37 ft 43 kts 71°
2026-05-06 04:08 22.32815 113.90279 36 ft 23 kts 75°
2026-05-06 04:08 22.32820 113.90445 36 ft 23 kts 102°
2026-05-06 04:09 22.32789 113.90614 37 ft 23 kts 101°
2026-05-06 04:09 22.32799 113.90781 39 ft 23 kts 71°
2026-05-06 04:09 22.32857 113.90948 40 ft 24 kts 69°
2026-05-06 04:09 22.32916 113.91122 42 ft 25 kts 72°
2026-05-06 04:10 22.32978 113.91320 41 ft 27 kts 71°
2026-05-06 04:10 22.33025 113.91482 42 ft 15 kts 72°
2026-05-06 04:10 22.33063 113.91603 39 ft 15 kts 70°
2026-05-06 04:10 22.33071 113.91630 39 ft 1 kts 70°
2026-05-06 04:11 22.33079 113.91653 39 ft 5 kts 70°
2026-05-06 04:11 22.33092 113.91706 38 ft 10 kts 83°
2026-05-06 04:11 22.33062 113.91767 37 ft 8 kts 165°
2026-05-06 04:11 22.33018 113.91727 37 ft 16 kts 239°
2026-05-06 04:12 22.32972 113.91597 40 ft 19 kts 250°
2026-05-06 04:12 22.32925 113.91455 41 ft 21 kts 250°
2026-05-06 04:12 22.32872 113.91293 40 ft 25 kts 251°
2026-05-06 04:12 22.32812 113.91106 39 ft 28 kts 251°
2026-05-06 04:13 22.32749 113.90910 38 ft 25 kts 250°
2026-05-06 04:13 22.32690 113.90727 39 ft 27 kts 251°
2026-05-06 04:13 22.32645 113.90580 38 ft 17 kts 252°
2026-05-06 04:13 22.32599 113.90451 39 ft 19 kts 238°
2026-05-06 04:14 22.32482 113.90426 41 ft 19 kts 162°
2026-05-06 04:14 22.32350 113.90477 40 ft 22 kts 162°
2026-05-06 04:14 22.32197 113.90532 38 ft 25 kts 160°
2026-05-06 04:14 22.32031 113.90596 38 ft 26 kts 161°
2026-05-06 04:15 22.31853 113.90662 38 ft 28 kts 160°
2026-05-06 04:15 22.31699 113.90709 38 ft 16 kts 187°
2026-05-06 04:15 22.31643 113.90629 37 ft 15 kts 248°
2026-05-06 04:15 22.31618 113.90558 37 ft 15 kts 249°
2026-05-06 04:16 22.31572 113.90418 35 ft 15 kts 250°
2026-05-06 04:16 22.31538 113.90313 33 ft 15 kts 250°
2026-05-06 04:16 22.31516 113.90249 33 ft 13 kts 250°
2026-05-06 04:16 22.31488 113.90164 35 ft 13 kts 250°
2026-05-06 04:17 22.31479 113.90136 35 ft 0 kts 243°